AirNav   Pilot Hours Calculator
 
 937 users online  

7MI Flugplatz Airport
Lexington, Michigan, USA

GOING TO LEXINGTON?


FAA INFORMATION EFFECTIVE 28 FEBRUARY 2019

Location

FAA Identifier: 7MI
Lat/Long: 43-20-30.2750N / 082-32-53.8250W
43-20.504583N / 082-32.897083W
43.3417431 / -82.5482847
(estimated)
Elevation: 700 ft. / 213 m (estimated)
Variation: 07W (1995)
From city: 5 miles N of LEXINGTON, MI
Time zone: UTC -5 (UTC -4 during Daylight Saving Time)
Zip code: 48401

Airport Operations

Airport use: Open to the public
Activation date: 07/2000
Control tower: no
ARTCC: CLEVELAND CENTER
FSS: LANSING FLIGHT SERVICE STATION
NOTAMs facility: LAN (NOTAM-D service available)
Attendance: IRREG
Wind indicator: yes
Segmented circle: no

Airport Communications

CTAF: 122.9

Airport Services

Fuel available: 100LL
EMERGENCY ONLY

Runway Information

Runway 9/27

Dimensions: 3873 x 80 ft. / 1180 x 24 m
Surface: turf, in good condition
Runway edge markings: 3 FT YELLOW CONES.
RUNWAY 9  RUNWAY 27
Latitude: 43-20.467500N43-20.541667N
Longitude: 082-33.330833W082-32.463333W
Elevation: 669.0 ft.645.0 ft.
Traffic pattern: leftleft
Runway heading: 090 magnetic, 083 true270 magnetic, 263 true
Displaced threshold: 600 ft.1276 ft.
Obstructions: 18 ft. road, 48 ft. from runway, 2:1 slope to clear
APCH RATIO 36:1 AT DSPLCD THLD.
65 ft. trees, 132 ft. from runway, 2:1 slope to clear
APCH RATIO 20:1 AT DSPLCD THLD.

Airport Ownership and Management from official FAA records

Ownership: Privately-owned
Owner: WILLIAM SCHUTZLER
7126 TOWNSEND
APPLEGATE, MI 48401
Phone 810-359-7497
Manager: WILLIAM SCHUTZLER
7126 TOWNSEND
APPLEGATE, MI 48401
Phone 810-359-7497
OTHER CONTACT: GEORGE CRACKEL 6932 TOWNSEND, APPLEGATE MI 48401; 810-359-7176

Airport Operational Statistics

Aircraft based on the field: 3
Single engine airplanes: 2
Multi engine airplanes: 1
    
Aircraft operations: 200/year *
50% transient general aviation
50% local general aviation
* for 12-month period ending 31 December 2015

Additional Remarks

DEER ON AND INVOF ARPT.
FOR RY CONDITIONS CALL 810-359-7697.

Instrument Procedures

There are no published instrument procedures at 7MI.

Some nearby airports with instrument procedures:

77G - Marlette Airport (24 nm W)
KPHN - St Clair County International Airport (26 nm S)
KBAX - Huron County Memorial Airport (32 nm NW)
D95 - Dupont-Lapeer Airport (36 nm SW)
D98 - Romeo State Airport (38 nm SW)
 
Loc | Ops | Rwys | IFR | FBO | Links
Com | Nav | Svcs | Stats | Notes
Area around 7MI (Flugplatz Airport)
 
Road maps at: MapQuest Bing Google
 
Aerial photo
WARNING: Photo may not be current or correct
Aerial photo of 7MI (Flugplatz Airport)
Photo by Bill Schutzler
Photo taken 09-Jul-2008

Do you have a better or more recent aerial photo of Flugplatz Airport that you would like to share? If so, please send us your photo.

 
Sectional chart

 
Airport distance calculator
Flying to Flugplatz Airport? Find the distance to fly.

From to 7MI

Sunrise and sunset
Times for 24-Mar-2019
 Local
(UTC-4)
 Zulu
(UTC)
Morning civil twilight06:5910:59
Sunrise07:2711:27
Sunset19:4623:46
Evening civil twilight20:1400:14

Current date and time
Zulu (UTC)  24-Mar-2019 21:32:42
Local (UTC-4)  24-Mar-2019 17:32:42
 
METAR
CYZR 
23nm SE 
242100Z AUTO 02007KT 9SM OVC200 11/M00 A3003 RMK SLP174
KPHN 
26nm S 
242116Z AUTO 31005KT 10SM CLR 14/M03 A3003 RMK AO2
KBAX 
33nm NW 
242116Z AUTO 02007KT 10SM CLR 07/00 A3005 RMK AO2 T00660002
KD95 
36nm SW 
242116Z AUTO 30005KT 10SM CLR 13/00 A3004 RMK AO2 T01311003
KCFS 
40nm W 
242115Z AUTO 27007KT 10SM BKN110 12/01 A3003 RMK AO2 T01180007
KP58 
42nm N 
242051Z AUTO 01012KT 02/00 A3006 RMK AO1 SLP189 T00220000 53004
CWGD 
44nm NE 
242100Z AUTO 33008KT 04/M01 RMK AO1 SOG 03 5002 SLP181 T00361007
KMTC 
45nm S 
242056Z 28009KT 10SM SCT120 BKN150 BKN200 15/M03 A3002 RMK AO2A SLP173 T01461028 56019 $
TAF
CYZR 
23nm SE 
241938Z 2420/2502 20010KT P6SM BKN150 FM250000 01012KT P6SM SCT025 BKN120 TEMPO 2500/2502 OVC025 BECMG 2500/2502 01012G22KT RMK FCST BASED ON AUTO OBS. NXT FCST WILL BE ISSUED AT 250745Z
NOTAMs
Click for the latest NOTAMs
NOTAMs are issued by the DoD/FAA and will open in a separate window not controlled by AirNav.

 

 
 

Where to Stay: Hotels, Motels, Resorts, B&Bs, Campgrounds

 The hotels featured here are reported to be very convenient to the Flugplatz Airport. If your hotel/inn/B&B/resort is near the Flugplatz Airport, provides convenient transportation, or is otherwise attractive to pilots, flight crews, and airport users, consider listing it here.
  
 Business Name 
 
 Contact 
 
 Services / Description 
 
Distance
 
Comments
  
Butler Bed & Breakfast 810-359-5910
[web site]
[email]
Internet access, Lodging
 
Courtesy transportation   Wireless Internet Access (WiFi)  
 
More info about Butler Bed & Breakfast
6 miles
free shuttle
 
   write
Feature A Hotel
 

Would you like to see your business listed on this page?

 If your business provides an interesting product or service to pilots, flight crews, aircraft, or users of the Flugplatz Airport, you should consider listing it here.  To start the listing process, click on the button below
 
Add a business
 

Other Pages about Flugplatz Airport

Page from the Michigan Airport Directory (PDF)
 
Update a link
 
Copyright © AirNav, LLC. All rights reserved. Privacy Policy  Contact